Dewpoint
55 39 36 27 18 15 10 18 22 20 23 23 43 52 51 50 52 49 61 63 65 65 66 67 67 68 69 68 69 69 69 68 68 68 69 69 68 68 67 66 64 62 61 61 63 65 65 66 66
49 40 29 22 6 -3 8 19 19 20 21 24 32 47 48 47 48 53 60 61 66 64 65 67 67 68 69 69 70 70 70 70 68 67 68 69 68 68 67 66 65 63 61 60 61 64 65 66 65
36 30 24 13 8 -4 16 21 22 23 24 28 41 38 41 43 46 48 52 57 66 64 65 67 68 68 69 69 69 70 70 69 70 69 68 68 68 68 67 67 65 63 61 61 61 65 66 66 65
32 23 18 9 14 21 21 23 24 24 23 27 32 35 35 40 44 46 48 56 65 64 66 67 68 68 68 69 69 68 69 69 69 68 68 68 67 67 67 66 64 63 62 60 60 64 66 66 65
25 16 11 16 21 22 24 25 25 23 25 26 32 32 29 33 36 42 44 56 65 65 65 66 66 67 68 69 69 69 69 69 69 68 68 67 67 66 66 65 63 61 60 60 60 63 65 65 65
20 14 5 10 20 22 24 29 26 26 26 27 25 29 28 30 34 37 40 45 63 65 65 65 65 66 67 67 68 69 70 69 68 66 67 66 67 67 65 64 62 60 59 60 60 61 64 64 64
17 15 11 16 20 21 24 30 28 27 26 27 28 29 28 28 34 37 38 41 50 66 66 66 65 66 67 67 67 68 68 67 66 66 66 66 64 65 63 62 60 61 59 59 60 59 63 63 64
24 19 16 18 18 18 28 28 30 28 26 29 28 23 25 28 34 36 36 39 42 55 66 66 67 67 67 66 66 66 67 67 67 66 64 63 62 63 62 60 59 60 59 59 60 62 63 64 64
27 17 15 17 18 20 28 25 27 30 28 28 28 27 28 29 34 33 35 35 36 42 51 58 64 66 66 66 66 65 66 67 66 64 63 62 61 61 60 58 57 59 58 60 62 63 64 64 64
24 18 19 22 23 25 28 28 28 27 26 24 27 27 29 30 32 31 32 33 34 35 41 44 52 63 66 66 65 65 65 65 64 62 62 61 59 59 58 57 56 56 57 58 63 64 62 63 62
26 21 26 28 30 30 28 27 30 28 21 24 24 26 29 29 31 30 31 32 33 35 38 41 46 56 63 65 66 66 66 64 62 61 60 59 57 57 57 56 56 55 58 58 62 61 59 60 60
23 28 28 27 30 30 28 29 28 28 25 27 28 29 30 28 29 29 30 32 33 34 36 39 41 46 59 63 65 65 64 63 61 60 59 57 56 57 56 56 57 56 58 60 58 54 57 58 57
24 28 29 30 31 31 30 28 27 28 29 29 28 28 27 28 28 29 31 32 33 36 39 41 42 41 50 60 63 64 64 64 63 62 60 58 57 56 56 56 56 56 58 58 52 50 55 55 56
31 30 29 30 30 30 28 28 28 25 28 27 26 27 27 28 28 28 30 34 37 41 42 44 44 45 46 56 60 61 63 64 63 62 61 59 58 57 56 55 55 56 57 56 50 48 54 54 54
30 23 23 25 28 27 29 20 25 26 27 26 26 28 28 27 28 28 33 38 41 42 43 43 44 46 46 47 53 60 61 63 63 62 61 59 58 57 56 55 55 56 56 54 47 48 53 53 53
19 15 7 18 26 27 24 10 21 26 26 26 26 25 27 28 29 34 38 42 43 43 43 44 45 46 47 48 48 54 61 62 62 62 61 59 58 58 56 55 55 56 55 53 47 49 52 52 52
11 3 11 14 27 25 22 14 19 26 25 24 25 25 27 30 33 36 41 42 43 44 44 44 46 46 48 48 49 50 59 61 61 61 60 59 58 57 57 56 55 55 54 50 46 49 51 51 51
6 9 16 16 21 25 22 17 20 22 23 24 25 27 27 29 32 34 38 42 43 44 44 45 46 47 48 49 51 54 57 58 61 60 60 58 57 58 57 57 55 55 52 47 45 49 51 51 50
23 22 20 21 24 23 19 21 22 26 28 27 27 28 26 27 29 32 32 42 43 43 43 45 46 47 48 49 50 52 53 54 56 59 59 58 57 57 56 55 55 54 53 49 47 50 50 48 47
24 21 15 19 23 24 23 18 23 24 26 27 27 26 26 26 28 29 30 41 42 41 42 44 45 47 48 49 50 52 53 54 55 57 58 57 56 56 56 55 54 54 52 49 48 50 49 47 47
20 19 21 21 26 26 26 9 18 21 25 26 26 26 27 27 26 27 30 40 41 40 41 43 45 47 48 50 51 51 52 52 52 54 55 56 55 55 55 55 55 54 52 50 49 50 49 47 47
11 24 26 26 22 7 25 5 18 21 22 24 25 24 24 26 29 31 33 39 40 40 43 45 46 47 48 50 49 49 48 50 51 52 53 54 55 55 55 55 54 53 52 51 49 50 50 50 48
20 27 28 28 27 26 22 21 16 20 21 21 23 22 22 25 30 33 35 39 40 42 44 45 45 46 47 48 50 49 48 49 51 51 52 53 53 54 54 54 54 53 53 51 50 50 49 50 49
28 25 21 26 26 14 23 21 16 17 18 21 21 21 23 27 30 33 37 39 40 43 43 43 43 43 45 46 49 51 50 51 50 50 51 51 52 52 53 53 53 52 51 50 50 50 49 49 49
25 15 0 -2 0 3 21 19 17 21 21 20 20 21 24 25 27 30 35 37 42 42 42 42 42 42 43 44 46 51 50 51 50 49 50 50 51 51 52 53 52 51 50 49 50 50 50 50 47
25 19 3 -4 -1 6 17 11 10 21 22 22 22 23 23 24 25 28 33 39 41 41 42 42 42 41 42 43 45 48 51 50 50 50 51 51 50 50 51 51 51 50 49 49 49 49 50 49 48
23 19 22 19 17 18 16 16 16 22 21 22 23 23 24 26 27 28 33 40 40 41 41 41 41 41 41 42 44 46 51 51 50 50 50 50 51 50 51 51 51 50 49 49 48 48 47 48 47
25 25 18 20 9 6 11 13 11 19 21 22 22 24 26 30 32 31 33 40 41 41 41 41 41 40 41 42 43 46 50 51 50 50 49 49 50 50 50 50 50 50 49 48 48 48 47 47 45
25 23 24 20 18 14 13 12 18 20 21 23 24 26 28 32 36 37 39 40 40 40 40 40 40 40 41 42 43 45 47 51 50 49 49 49 50 50 50 50 49 48 48 48 47 46 46 45 43
26 24 23 19 18 20 19 17 21 23 23 23 24 26 29 33 37 39 39 39 39 39 39 39 39 40 41 42 43 45 50 51 50 49 49 49 49 50 49 49 48 47 47 47 45 44 44 42 41
Wind_Speed
5 5 3 4 3 4 2 1 2 5 2 3 5 5 7 5 4 3 2 7 6 3 9 8 14 15 16 14 12 10 12 13 15 16 18 19 20 20 20 19 16 15 13 13 13 13 15 15 17
2 2 5 4 4 4 2 3 2 3 4 10 1 1 5 3 3 4 4 13 9 9 11 9 13 15 15 14 13 11 12 14 14 14 16 19 18 18 18 19 17 15 12 12 12 12 14 17 18
4 4 3 5 4 4 4 2 5 6 6 3 3 4 2 3 4 6 9 16 10 4 12 10 11 14 15 15 14 14 12 12 12 12 13 15 17 18 17 16 16 16 11 11 11 12 15 18 17
3 4 6 5 5 1 1 3 5 7 1 9 2 5 2 2 3 6 13 15 7 4 8 10 11 12 13 13 13 14 14 11 12 10 12 12 12 14 16 17 15 14 10 11 12 10 14 17 17
6 4 5 5 3 2 0 2 4 5 2 6 4 2 3 1 5 9 13 13 10 2 5 8 13 12 12 13 12 11 11 12 13 14 13 12 10 13 18 17 14 12 9 11 12 10 13 15 15
4 3 3 5 3 1 1 3 1 4 4 5 4 2 1 3 6 10 11 12 9 1 4 5 9 11 11 13 13 12 12 13 14 14 15 15 14 16 17 16 13 10 9 11 12 11 12 13 14
5 4 4 5 6 2 0 5 2 3 4 4 2 2 1 3 7 8 8 10 12 6 2 4 6 7 12 13 13 13 14 15 16 17 15 13 14 14 14 13 8 8 9 11 12 14 12 12 13
5 5 5 2 6 2 1 3 1 2 1 7 1 2 2 2 9 7 7 9 11 11 7 2 5 3 8 13 15 16 17 19 19 17 15 15 12 11 11 13 8 9 11 12 12 13 14 13 15
2 4 4 4 6 2 2 3 1 1 2 3 2 2 1 8 6 8 9 10 10 10 11 10 7 5 6 11 13 17 19 19 19 18 18 17 12 10 11 11 8 9 11 13 14 15 13 15 16
5 4 3 2 2 1 3 1 4 2 5 2 2 2 5 6 8 10 9 8 9 10 11 11 11 11 5 4 10 13 14 14 12 13 13 12 12 12 11 11 10 11 10 13 15 17 14 12 13
3 3 4 3 2 2 0 2 1 2 1 4 4 4 7 7 6 7 6 4 5 6 7 10 9 10 10 7 3 6 8 9 9 12 15 13 11 11 10 10 11 10 10 7 13 11 10 12 11
6 3 3 1 1 0 2 1 2 4 3 1 6 6 6 5 4 5 4 5 5 7 9 10 10 8 7 6 3 4 6 8 8 7 10 13 11 10 10 10 10 6 6 8 9 8 10 10 10
5 2 1 2 3 5 3 5 4 10 10 4 5 5 6 5 4 2 1 3 5 8 9 11 11 11 8 5 4 3 6 7 4 6 6 10 13 13 11 10 9 7 6 10 8 8 10 10 10
2 3 2 2 3 2 5 6 3 2 4 3 6 4 3 3 2 1 5 6 7 6 9 9 11 11 11 8 6 6 6 7 8 8 11 6 9 14 13 12 10 7 7 9 10 12 9 8 10
2 3 1 7 7 3 5 2 3 2 3 4 5 6 6 6 2 4 5 6 5 5 5 10 11 10 11 11 9 8 8 7 9 11 12 10 9 8 14 13 11 6 4 12 11 10 9 10 8
5 4 2 4 9 2 5 4 2 3 4 9 8 10 7 1 5 5 5 5 5 5 8 9 11 12 12 10 10 9 9 8 8 9 12 15 15 16 12 13 12 11 7 10 12 12 10 12 12
9 2 5 6 7 8 5 8 4 2 6 16 15 13 8 5 4 3 4 4 4 5 8 11 13 15 14 12 9 9 10 9 8 8 10 14 16 18 17 13 13 11 13 11 12 6 11 13 13
5 5 4 5 8 9 12 17 19 19 17 16 11 8 7 6 3 3 3 3 4 5 7 7 8 12 13 12 9 7 7 7 8 7 8 13 14 15 13 13 16 13 10 12 12 10 5 10 15
3 2 6 5 2 10 8 20 26 16 5 7 6 6 7 4 2 2 6 5 7 6 10 11 12 13 11 8 7 5 6 7 7 7 8 11 11 15 17 15 17 16 19 15 12 13 15 7 13
2 3 5 8 4 7 9 25 7 7 4 3 5 4 4 0 3 4 7 6 7 10 12 14 12 13 12 8 6 4 4 6 6 6 7 9 12 13 15 16 18 17 17 21 19 20 13 4 12
4 2 3 5 13 0 12 8 4 3 6 9 9 6 4 3 5 9 12 9 10 14 16 15 15 14 12 10 7 7 5 4 4 3 4 6 11 14 15 18 19 20 17 16 21 24 24 16 10
0 3 4 9 8 6 8 7 4 6 4 6 6 7 6 6 7 9 13 14 13 15 15 14 15 16 12 11 6 7 9 10 6 7 6 9 11 13 14 16 19 22 17 18 20 17 19 24 26
3 4 5 2 1 3 4 2 3 4 1 3 3 5 7 8 10 14 13 11 14 13 15 14 14 16 15 14 7 4 8 11 9 6 7 8 9 12 13 16 17 18 19 22 20 17 19 15 19
4 2 2 3 2 1 2 1 2 2 2 2 2 4 9 10 11 14 13 10 11 13 13 15 16 17 16 16 16 12 10 8 8 8 9 9 8 10 13 14 17 19 20 20 20 18 16 15 13
7 5 6 3 2 2 2 3 6 7 4 1 4 9 11 13 14 16 17 14 12 12 14 15 17 20 17 16 17 14 12 12 13 12 12 12 11 9 13 16 16 16 16 17 18 18 18 18 20
3 1 1 6 4 6 4 5 1 4 7 10 11 14 19 21 19 18 19 13 11 11 13 15 17 20 19 17 15 16 12 10 12 13 12 13 11 10 11 13 14 17 17 18 21 19 20 17 17
1 2 1 1 2 4 4 4 3 9 17 20 20 25 24 25 25 22 20 12 10 12 15 16 16 18 17 17 16 16 12 12 12 12 12 12 11 11 12 14 14 15 19 20 20 20 19 17 14
1 6 2 2 3 6 5 5 2 10 21 22 26 23 23 22 23 21 18 11 11 13 15 15 15 18 18 17 15 13 14 12 12 11 13 13 12 12 14 16 16 17 17 18 18 15 15 18 14
1 1 3 1 3 4 7 5 4 12 14 16 16 16 17 19 21 21 16 14 13 15 16 17 17 18 18 16 16 16 16 13 12 12 12 13 12 13 15 16 15 17 17 18 17 17 18 19 15
1 1 3 3 2 1 2 10 15 13 10 12 15 17 19 18 21 19 16 14 16 17 18 19 17 17 17 17 17 16 13 9 10 11 11 11 13 13 15 15 16 16 17 18 19 19 19 19 19
Wind_Direction
14 49 83 49 128 73 136 104 296 31 51 22 325 45 90 46 26 103 200 43 332 212 187 189 175 172 162 164 163 159 146 141 146 151 154 158 155 152 149 141 133 131 133 139 132 125 122 118 115
55 86 55 90 102 153 184 316 90 349 315 311 171 339 55 67 14 343 6 346 333 222 201 192 177 174 168 168 164 163 160 156 158 165 166 166 161 164 158 145 138 128 133 141 141 135 121 122 119
96 51 81 94 98 161 146 7 316 313 329 16 99 53 65 359 338 340 328 330 336 202 205 198 184 180 172 171 174 172 175 162 165 168 172 174 172 171 162 143 129 121 134 139 143 140 134 131 127
45 38 62 79 97 103 118 334 331 346 313 34 26 73 42 20 343 323 322 336 326 194 193 208 197 188 182 178 182 174 174 167 167 177 165 176 175 168 134 118 117 115 134 145 145 142 144 135 132
43 53 71 86 109 140 159 349 328 29 28 356 355 88 79 45 338 345 348 352 359 204 197 215 221 198 198 190 188 189 180 179 175 167 155 144 139 141 122 120 118 118 145 152 154 151 139 140 139
63 74 89 154 146 187 294 353 324 25 9 1 45 68 93 346 24 345 348 2 1 291 201 232 240 227 210 205 194 193 194 190 179 171 152 137 127 129 131 123 123 134 159 162 163 165 153 148 149
103 80 111 133 149 163 281 345 57 9 2 27 305 105 309 21 354 340 353 4 13 6 199 232 245 241 222 210 201 193 187 182 166 157 143 135 129 141 132 122 136 159 170 172 169 172 162 160 156
96 91 117 156 167 161 313 357 125 35 0 313 240 167 182 312 335 352 7 15 29 35 61 354 290 310 234 220 207 195 174 162 162 158 154 145 139 148 145 128 151 177 183 175 185 174 164 155 155
98 79 126 157 161 151 349 2 24 307 292 321 307 183 319 316 330 10 18 10 20 27 33 25 10 285 256 239 222 207 188 180 174 174 168 156 159 160 148 148 164 192 192 185 189 173 162 156 161
56 90 145 166 151 68 352 346 325 355 342 276 268 270 319 358 17 9 18 22 11 11 9 9 5 6 317 257 234 218 211 198 190 183 173 169 165 160 150 136 175 193 200 194 181 153 140 145 145
65 88 163 166 165 162 110 320 240 320 7 227 201 253 326 341 354 359 355 3 349 341 5 3 5 3 4 354 288 228 199 188 199 198 172 166 163 161 154 148 186 199 215 184 152 133 140 154 151
105 114 138 160 146 161 278 295 260 202 221 215 253 280 294 307 311 312 319 357 11 19 19 13 4 6 4 355 346 250 207 192 189 190 181 165 160 160 155 162 187 203 213 153 149 147 144 145 146
81 124 353 345 292 284 299 273 273 261 247 266 288 258 271 279 288 314 313 61 64 43 27 20 15 6 353 343 317 251 221 213 187 192 201 169 169 163 157 171 192 182 180 160 143 139 142 143 147
67 55 21 8 359 344 320 307 320 321 163 137 9 348 302 281 243 101 110 83 65 48 32 22 24 9 356 337 312 293 258 218 194 179 197 199 173 161 166 175 194 184 177 142 148 147 141 147 147
81 108 63 37 354 18 321 347 252 270 182 239 355 2 326 297 228 124 112 94 69 56 27 16 7 10 1 338 317 289 275 256 201 191 185 173 171 169 172 174 176 184 185 137 132 125 119 118 119
39 43 24 7 8 8 7 291 263 197 219 250 281 318 313 301 131 125 117 99 50 31 12 3 0 353 349 341 314 294 265 250 243 190 176 177 179 176 183 176 176 160 171 150 147 143 133 124 132
27 5 344 344 31 339 27 281 263 271 274 279 284 288 265 192 144 118 86 70 44 17 358 353 354 349 342 334 318 293 270 247 236 219 176 186 187 183 184 175 164 159 160 156 152 146 151 144 131
352 358 334 300 347 340 305 281 292 288 270 261 271 259 223 198 177 65 48 1 353 340 338 336 339 346 341 331 323 308 278 269 254 215 194 184 189 185 183 174 155 150 146 142 139 142 108 153 140
94 358 307 278 271 339 301 298 306 321 285 246 226 208 194 206 293 51 4 357 350 338 341 347 345 347 341 336 323 320 288 272 257 228 205 190 190 179 173 165 160 163 155 159 152 129 141 133 133
33 334 330 287 262 325 318 305 316 358 39 89 165 173 170 298 339 346 355 348 350 338 342 338 339 338 330 313 297 265 261 257 249 245 202 191 185 180 170 170 171 172 156 161 166 147 145 127 174
40 24 321 282 317 194 331 301 9 11 51 70 70 113 99 69 5 351 346 345 347 350 345 334 328 327 325 312 297 293 275 235 229 225 220 192 184 184 183 183 180 176 161 173 174 167 166 154 197
100 231 268 306 355 313 9 295 350 346 42 63 66 90 80 36 5 346 345 339 338 332 333 335 330 326 328 323 310 274 263 263 252 223 217 197 185 187 189 189 188 181 183 172 189 176 179 166 180
256 265 296 359 325 331 359 300 284 5 105 51 92 69 40 20 1 338 328 315 316 328 331 330 328 324 327 329 301 274 261 254 249 247 230 204 197 186 187 188 182 186 186 185 184 185 173 190 179
296 241 56 87 92 243 318 335 338 23 353 121 103 54 35 10 342 325 312 308 311 325 335 336 336 327 327 325 324 302 290 272 259 248 227 208 204 195 192 191 190 185 179 174 184 179 176 182 182
18 14 333 328 326 240 121 286 269 319 330 344 56 23 8 347 328 323 311 308 313 322 329 335 332 326 324 320 317 298 281 278 262 235 218 203 199 197 197 192 188 189 182 178 166 166 174 176 170
26 40 144 293 287 292 303 234 150 19 68 57 38 356 338 329 318 308 309 296 306 321 328 332 328 322 319 316 306 303 265 252 249 233 217 210 199 204 200 197 190 180 182 177 173 180 178 170 166
163 57 130 99 42 305 272 282 339 78 35 17 9 353 347 341 334 321 320 308 319 328 332 329 323 315 310 308 303 294 270 240 233 225 214 208 206 192 183 186 187 186 184 179 177 181 175 178 166
321 151 14 38 301 288 286 288 242 44 13 3 355 347 342 339 339 333 338 336 336 335 325 319 316 310 306 304 302 292 294 240 225 219 215 211 204 190 182 188 188 176 175 173 173 171 165 162 162
116 217 87 131 173 251 301 284 177 56 14 352 347 340 337 340 345 350 348 343 339 334 331 324 324 320 315 315 310 297 292 238 215 213 209 205 203 192 186 186 179 173 170 169 169 165 159 161 163
321 226 174 195 232 221 243 270 115 48 30 19 0 353 349 347 355 349 343 349 349 342 336 330 327 326 319 317 311 303 297 230 219 214 208 196 195 191 183 181 174 175 171 167 164 163 164 165 163